Simultaneous Nadir Overpasses (SNOs) Predictions

Prediction of SNOs between AQUA and NPP Satellite Orbit:

Table of predicted SNOs for the next 14.0 days since TLE Epoch: 9/14/2012
Index Date (AQUA) Time (AQUA) Lat,Lon (AQUA) SZA (AQUA ) Date (NPP) Time (NPP) Lat,Lon (NPP) SZA (NPP ) Distance(km) Time Diff (sec)
1 09/15/2012 14:54:04 76.42,-163.31 93.82 09/15/2012 14:53:12 76.41,-163.40 93.89 2.69 52
2 09/15/2012 15:43:09 -77.48, 8.24 87.42 09/15/2012 15:43:33 -77.49, 8.32 87.46 2.01 24
3 09/18/2012 07:10:21 77.03, -45.30 94.08 09/18/2012 07:09:52 77.04, -45.19 94.08 3.00 29
4 09/18/2012 07:59:35 -77.66, 124.84 86.67 09/18/2012 08:00:23 -77.67, 124.91 86.72 1.79 48
5 09/20/2012 23:26:50 77.13, 70.95 94.93 09/20/2012 23:26:43 77.13, 70.98 94.93 0.88 7
6 09/21/2012 00:16:04 -77.76,-118.85 85.82 09/21/2012 00:17:14 -77.76,-118.86 85.88 0.26 70
7 09/23/2012 14:54:13 -76.49, 16.86 83.37 09/23/2012 14:53:08 -76.49, 16.89 83.32 0.88 65
8 09/23/2012 15:43:18 77.44,-171.99 95.54 09/23/2012 15:43:30 77.45,-171.87 95.50 2.98 12
9 09/26/2012 07:10:45 -76.73, 133.54 82.68 09/26/2012 07:09:57 -76.74, 133.59 82.65 1.40 48
10 09/26/2012 07:59:58 77.31, -56.67 96.67 09/26/2012 08:00:28 77.30, -56.77 96.67 2.88 30




NCC Satellite Simultaneous Nadir Overpasses (SNOs) Prediction Service
